[[{"header":{"parameterUnit":"m.s-1","parameterCategory":1,"la1":30.2991,"la2":30.254,"lo1":-89.0895,"lo2":-89.0444,"dy":0.0017,"dx":0.0017,"nx":28,"ny":28,"refTime":"2024-03-05T09:00:00:Z","depth":0,"parameterNumber":2,"parameterNumberName":"U-component_of_WINDS"},"data":[0,0,0,0,0,0,0,0,0,0,0,0,0,0,0,0,0,0,0,0,0,0,0,0,0,0,0,0,0,0,0,0,0,0,0,0,0,0,0,0,0,0,0,0,0,0,0,0,0,0,0,0,0,0,0,0,0,0,1.2251,1.2252,0,1.2344,1.2346,1.2347,1.231,1.2308,1.2306,1.2303,1.2402,1.2407,1.2411,0,0,0,0,0,0,0,0,0,0,0,0,0,1.2041,1.2045,1.2251,1.2252,1.2253,1.2344,1.2346,1.2347,1.231,1.2308,1.2305,1.2302,1.2401,1.2406,1.2412,0,0,0,0,0,0,0,0,0,0,0,0,0,1.2133,1.2047,1.225,1.2246,1.2246,1.2344,1.2346,1.2347,1.2311,1.2308,1.2304,1.2301,1.2399,1.2406,1.2413,1.2522,0,0,1.2434,1.2437,0,0,0,0,0,0,0,0,1.2128,1.2141,1.2245,1.2246,1.2247,1.2312,1.2308,1.2406,1.2312,1.2286,1.2303,1.23,1.2375,1.2384,1.2409,1.2526,1.2531,1.2435,1.2439,1.2442,1.2444,0,0,0,0,0,0,0,1.2122,1.2137,1.2288,1.2247,1.2248,1.2239,1.2249,1.2326,1.2348,1.2288,1.2286,1.2297,1.2375,1.2402,1.2411,1.2532,1.2435,1.2441,1.2445,1.2448,1.2741,1.2745,0,0,0,0,0,0,1.2115,1.2132,1.2285,1.2291,1.2178,1.2246,1.2256,1.2295,1.2347,1.2352,1.23,1.2295,1.2392,1.2403,1.2414,1.2543,1.2442,1.2448,1.2453,1.2738,1.2742,1.2746,0,0,0,0,0,0,1.2111,1.2129,1.2281,1.2211,1.2229,1.2253,1.2296,1.2298,1.2325,1.2356,1.236,1.2324,1.239,1.2404,1.2494,1.2546,1.2452,1.2458,1.2734,1.2739,1.2744,1.2804,0,0,0,0,0,0,1.2105,1.2128,1.2169,1.2212,1.2233,1.236,1.2299,1.2302,1.2337,1.2332,1.2379,1.2384,1.2388,1.2484,1.2501,1.2554,1.2463,1.2729,1.2736,1.2742,1.2797,1.281,1.2822,0,0,0,0,0,1.2097,1.2183,1.2171,1.219,1.2285,1.2363,1.2375,1.2377,1.2341,1.2383,1.2403,1.2382,1.2538,1.2494,1.2513,1.2569,1.2726,1.2734,1.2742,1.2792,1.2808,1.2821,0,0,0,0,0,0,1.2147,1.2189,1.2176,1.2278,1.2317,1.2356,1.2409,1.2395,1.2445,1.2438,1.244,1.2451,1.2543,1.2565,1.2515,1.2676,1.2627,1.2639,1.2658,1.2673,1.2685,1.2678,1.2469,0,0,0,0,0,1.2169,1.2228,1.2262,1.2349,1.2369,1.2386,1.2419,1.2418,1.2458,1.2475,1.2501,1.2542,1.26,1.2638,1.2693,1.28,1.2809,1.2848,1.286,1.287,1.288,1.2937,1.2954,1.2773,1.2773,1.2772,0,0,1.2217,1.2247,1.2284,1.2359,1.2389,1.245,1.24,1.2467,1.2511,1.2485,1.2571,1.2592,1.2638,1.2736,1.2781,1.2757,1.2933,1.2881,1.2888,1.2893,1.2947,1.2964,1.2979,1.2778,1.2777,1.2776,0,0,1.2334,1.2364,1.2438,1.2468,1.2514,1.2524,1.2542,1.2584,1.2596,1.2682,1.2663,1.2717,1.2818,1.285,1.288,1.3008,1.2991,1.3027,1.309,1.3145,1.3159,1.3172,1.3216,1.3232,1.3037,1.3037,1.3037,0,1.2388,1.2478,1.2478,1.2546,1.2579,1.2557,1.2632,1.2662,1.2724,1.2747,1.272,1.2843,1.2873,1.2978,1.3009,1.3034,1.3054,1.3021,1.3157,1.317,1.3182,1.3223,1.324,1.3041,1.3041,1.304,1.304,0,1.254,1.2603,1.2658,1.2716,1.2755,1.2827,1.2838,1.2878,1.2873,1.2886,1.2974,1.3008,1.3069,1.3094,1.3091,1.3198,1.3181,1.3156,1.3106,1.3203,1.3242,1.3258,1.3047,1.3045,1.3044,1.3043,0,0,1.269,1.2747,1.2767,1.2792,1.2841,1.2889,1.296,1.3018,1.3051,1.3095,1.3153,1.3238,1.3213,1.3247,1.3247,1.3296,1.3393,1.3264,1.3265,1.3285,1.3511,1.3528,1.3547,1.3382,1.3385,1.3388,1.3506,0,1.2809,1.2931,1.2933,1.3045,1.3102,1.3082,1.3143,1.3179,1.3193,1.3244,1.3261,1.332,1.3285,1.3305,1.3352,1.3371,1.3438,1.3363,1.3435,1.3438,1.3422,1.3568,1.3587,1.3697,1.3522,1.3525,1.3526,0,1.2964,1.3011,1.3128,1.3166,1.319,1.3245,1.3297,1.3347,1.3387,1.3394,1.3432,1.3424,1.3495,1.3444,1.3542,1.3491,1.3521,1.3535,1.3539,1.3544,1.3486,1.3575,1.3733,1.3748,1.3551,1.3549,1.3547,0,1.3059,1.3152,1.3233,1.3256,1.3303,1.3342,1.3363,1.3401,1.3435,1.3482,1.3504,1.3559,1.3588,1.3631,1.3638,1.3601,1.3735,1.3686,1.3742,1.3742,1.377,1.3768,1.3932,1.3793,1.3793,1.3793,1.3792,0,1.3191,1.3263,1.3276,1.3326,1.3405,1.3407,1.3486,1.3505,1.3538,1.3591,1.3578,1.3629,1.3636,1.3688,1.3695,1.3773,1.3787,1.3794,1.3795,1.3794,1.3793,1.3813,1.3804,1.3797,1.3796,1.3795,1.3795,0,1.3309,1.3321,1.3408,1.3446,1.3457,1.3514,1.3546,1.3593,1.3606,1.3673,1.3689,1.371,1.377,1.3782,1.3854,1.3858,1.3951,1.3945,1.3937,1.3935,1.399,1.3984,1.4172,1.4195,1.4043,1.4044,1.4046,0,1.3391,1.3446,1.3489,1.3523,1.3546,1.3601,1.3636,1.364,1.3677,1.3726,1.3768,1.3826,1.3873,1.3971,1.3992,1.4047,1.4041,1.4103,1.4049,1.4046,1.4039,1.4034,1.4039,1.4112,1.4114,1.4115,1.4116,0,1.3535,1.3537,1.3587,1.3639,1.368,1.3722,1.3761,1.379,1.38,1.3841,1.3902,1.3938,1.4011,1.4069,1.4123,1.4146,1.4132,1.4133,1.4149,1.4148,1.4139,1.4142,1.3962,1.4129,1.4127,1.4126,1.4126,1.4125,1.3636,1.3682,1.3719,1.3775,1.3805,1.3841,1.3887,1.3905,1.3956,1.4014,1.4014,1.408,1.4119,1.419,1.4216,1.4268,1.4248,1.4271,1.4277,1.4282,1.4285,1.4133,1.4278,1.4278,1.4277,1.4277,1.4277,0,1.3776,1.3799,1.385,1.3904,1.3948,1.3931,1.3974,1.4011,1.4069,1.4106,1.4152,1.4221,1.4277,1.4303,1.4358,1.4394,1.4389,1.4408,1.4404,1.4409,1.4301,1.4281,1.4411,1.4411,1.4411,1.4411,1.4411,1.4411,1.3854,1.3931,1.3938,1.403,1.4053,1.4116,1.4141,1.4175,1.4204,1.4281,1.4327,1.4343,1.4375,1.4433,1.4483,1.4489,1.4509,1.453,1.4533,1.4431,1.4417,1.4404,1.4385,1.4535,1.4535,1.4637,1.4638,1.4639]},{"header":{"parameterUnit":"m.s-1","parameterCategory":1,"la1":30.2991,"la2":30.254,"lo1":-89.0895,"lo2":-89.0444,"dy":0.0017,"dx":0.0017,"nx":28,"ny":28,"refTime":"2024-03-05T09:00:00:Z","depth":0,"parameterNumber":3,"parameterNumberName":"V-component_of_WINDS"},"data":[0,0,0,0,0,0,0,0,0,0,0,0,0,0,0,0,0,0,0,0,0,0,0,0,0,0,0,0,0,0,0,0,0,0,0,0,0,0,0,0,0,0,0,0,0,0,0,0,0,0,0,0,0,0,0,0,0,0,1.4178,1.4178,0,1.4186,1.4186,1.4186,1.4092,1.4089,1.4087,1.4084,1.4094,1.4097,1.4099,0,0,0,0,0,0,0,0,0,0,0,0,0,1.4084,1.4086,1.4178,1.4178,1.4178,1.4186,1.4186,1.4186,1.4092,1.4089,1.4086,1.4083,1.4093,1.4096,1.4099,0,0,0,0,0,0,0,0,0,0,0,0,0,1.4111,1.4086,1.4178,1.4132,1.4128,1.4186,1.4186,1.4186,1.4093,1.4089,1.4085,1.4082,1.4092,1.4096,1.41,1.4202,0,0,1.4112,1.4114,0,0,0,0,0,0,0,0,1.411,1.4115,1.4139,1.4136,1.4131,1.4134,1.4156,1.4191,1.4094,1.4106,1.4084,1.408,1.4111,1.4113,1.4123,1.4202,1.4203,1.4112,1.4115,1.4117,1.4118,0,0,0,0,0,0,0,1.4108,1.4114,1.4181,1.414,1.4135,1.4112,1.4111,1.4162,1.413,1.4105,1.4098,1.41,1.4108,1.4119,1.4122,1.4203,1.4112,1.4116,1.4118,1.412,1.4364,1.4368,0,0,0,0,0,0,1.4112,1.4113,1.4181,1.4181,1.4111,1.4117,1.4116,1.4137,1.4129,1.4124,1.4104,1.4096,1.4114,1.4118,1.4122,1.4239,1.4117,1.412,1.4123,1.436,1.4365,1.437,0,0,0,0,0,0,1.411,1.4119,1.4181,1.4145,1.4151,1.4122,1.4146,1.4139,1.415,1.4128,1.4122,1.4121,1.4111,1.4117,1.4182,1.4238,1.4122,1.4126,1.4355,1.4362,1.4367,1.4475,0,0,0,0,0,0,1.4108,1.4119,1.4157,1.4147,1.4154,1.424,1.415,1.4142,1.4157,1.4147,1.4143,1.4139,1.4109,1.4177,1.4186,1.4242,1.4129,1.435,1.4358,1.4366,1.4466,1.4484,1.4499,0,0,0,0,0,1.4105,1.4188,1.416,1.4169,1.4201,1.4244,1.4248,1.4211,1.4162,1.42,1.4186,1.4139,1.4231,1.4184,1.4194,1.4252,1.4347,1.4356,1.4365,1.4459,1.4481,1.4499,0,0,0,0,0,0,1.4207,1.4186,1.4154,1.4237,1.4243,1.4228,1.4275,1.4235,1.4256,1.4246,1.42,1.42,1.4273,1.4269,1.4217,1.4349,1.428,1.4292,1.4348,1.4369,1.4385,1.4384,1.4132,0,0,0,0,0,1.424,1.4276,1.4255,1.433,1.4334,1.4305,1.4322,1.4293,1.4298,1.43,1.429,1.4297,1.4327,1.4348,1.4375,1.4466,1.4463,1.451,1.4527,1.454,1.4551,1.4596,1.4617,1.44,1.44,1.44,0,0,1.4306,1.4299,1.4325,1.435,1.4351,1.439,1.4307,1.4352,1.438,1.4307,1.4367,1.4361,1.4365,1.4443,1.4477,1.4442,1.461,1.4552,1.4563,1.4566,1.4608,1.4629,1.4647,1.4406,1.4405,1.4404,0,0,1.4447,1.4446,1.4506,1.4509,1.4511,1.4491,1.4506,1.4497,1.4489,1.4549,1.4494,1.4527,1.4581,1.4585,1.4595,1.4736,1.4693,1.4746,1.4832,1.4877,1.4894,1.4909,1.4957,1.4976,1.4757,1.4757,1.4757,0,1.453,1.4584,1.4543,1.459,1.4603,1.4538,1.4598,1.4603,1.4615,1.4625,1.4586,1.465,1.4649,1.4726,1.476,1.4771,1.4785,1.4746,1.4895,1.4909,1.4923,1.4968,1.4987,1.4763,1.4762,1.4762,1.4761,0,1.4685,1.4724,1.4773,1.4784,1.4802,1.4856,1.4823,1.4846,1.4816,1.4799,1.486,1.4856,1.488,1.4897,1.4868,1.497,1.4947,1.4903,1.4832,1.495,1.4992,1.501,1.4772,1.477,1.4768,1.4767,0,0,1.489,1.4876,1.4895,1.4898,1.4895,1.4925,1.4976,1.4998,1.5018,1.5029,1.5069,1.5115,1.5073,1.5084,1.5055,1.5095,1.5205,1.5045,1.5044,1.5073,1.5315,1.5347,1.5368,1.5177,1.518,1.5183,1.5313,0,1.5025,1.511,1.5074,1.5162,1.5197,1.5135,1.5179,1.5182,1.5168,1.5196,1.5181,1.5213,1.5156,1.5162,1.5199,1.5184,1.5252,1.5174,1.5214,1.5215,1.5212,1.539,1.5425,1.5549,1.533,1.5333,1.5335,0,1.5194,1.5209,1.5301,1.529,1.5303,1.5343,1.5359,1.5387,1.5389,1.5376,1.5388,1.5349,1.5398,1.533,1.5396,1.5343,1.5358,1.5353,1.5357,1.5357,1.5281,1.5394,1.5587,1.5605,1.5361,1.5358,1.5357,0,1.5331,1.5375,1.5435,1.544,1.543,1.5459,1.5456,1.5454,1.5469,1.5484,1.5493,1.5515,1.5526,1.5543,1.5511,1.5465,1.5582,1.5511,1.5571,1.5572,1.5597,1.5596,1.5794,1.561,1.561,1.5609,1.5609,0,1.5485,1.5543,1.5496,1.5533,1.5596,1.5554,1.5617,1.5608,1.5607,1.564,1.5589,1.5622,1.5579,1.5608,1.5584,1.5641,1.5647,1.5638,1.563,1.5641,1.5642,1.5648,1.5638,1.5614,1.5613,1.5612,1.5611,0,1.5648,1.562,1.568,1.5665,1.5663,1.5709,1.5696,1.5729,1.5711,1.5755,1.5762,1.5735,1.5765,1.5736,1.5766,1.575,1.5826,1.5807,1.5825,1.5819,1.588,1.5874,1.6087,1.6112,1.5915,1.5917,1.5918,0,1.5747,1.579,1.5779,1.5797,1.5797,1.5827,1.5842,1.5802,1.5819,1.5824,1.5857,1.5883,1.5902,1.5954,1.5937,1.5959,1.5939,1.6012,1.5942,1.5951,1.5938,1.5935,1.5938,1.6026,1.6029,1.6031,1.6032,0,1.5925,1.5908,1.5931,1.5948,1.5966,1.5978,1.5987,1.6005,1.5964,1.5986,1.6016,1.6031,1.606,1.6086,1.6103,1.61,1.606,1.6055,1.6069,1.608,1.6087,1.6082,1.5861,1.605,1.6048,1.6047,1.6046,1.6045,1.6058,1.6092,1.6089,1.6115,1.6117,1.6125,1.6155,1.614,1.6164,1.6184,1.616,1.6196,1.6196,1.6214,1.6216,1.6244,1.6213,1.6235,1.6241,1.6246,1.6254,1.6085,1.6248,1.6247,1.6247,1.6246,1.6246,0,1.6231,1.6225,1.625,1.6262,1.6283,1.6242,1.6248,1.6268,1.6301,1.6304,1.6323,1.6357,1.6382,1.6366,1.6388,1.6413,1.6395,1.642,1.6417,1.6416,1.6282,1.6266,1.6434,1.6434,1.6434,1.6434,1.6434,1.6434,1.6323,1.6378,1.6361,1.6416,1.641,1.6445,1.6452,1.6459,1.6461,1.6501,1.6521,1.651,1.6505,1.6526,1.6547,1.6541,1.6551,1.6582,1.6571,1.6445,1.6426,1.6408,1.6393,1.6585,1.6586,1.6702,1.6703,1.6704]}]]